STARLINK-4734, 53790

Orbit data source: Space-Track

STARLINK-4734, 53790 is a payload satellite owned by SpaceX/Seattle (US) in LEO that was launched on Sun, 11 Sep 2022 UTC via an FALCON 9 launch vehicle from the Air Force Eastern Test Range (AFETR). Payload-class satellites include a variety of spacecraft equipped with specific instruments for various scientific and technological missions. These include communications satellites like Starlink; space stations such as the ISS; scientific satellites like the Hubble; Earth observation satellites from companies like Planet Labs, Umbra, and HawkEye 360; GPS; miniature CubeSats for education and research; and military/defense satellites.

Loading next visibility...
Identifier
53790, 2022-111T
Orbit
LEO
Country
Flag of USUS
Related business
Manufacturer
SpaceX/Seattle
Mission
Operational Commercial Communications
Bus & Motor
STARLINK, Unknown motor
Mass
305 kg wet, ~290 kg dry
Launch date (UTC)
2022-09-11 (4 years ago)
Launch vehicle
FALCON 9
Launch site
Air Force Eastern Test Range (AFETR)
Object type
Payload
Rocket body
Debris
Shape & HBR
Box + 1 Pan, 10.1 m
Radar Cross Section
13.562 m², Large (>1 m²)

Expand to show TLE details & history
Last TLE update: 13 hours ago

TLE from 13 hours ago
0 STARLINK-4734
1 53790U 22111T   26127.94663647  .00001811  00000-0  13189-3 0  9990
2 53790  53.2184   7.9846 0001286  95.0513 265.0626 15.08823838202640
Epoch: 2026-05-07T22:43Z
TLE epoch observation values (Epoch: 2026-05-07T22:43:09.391Z)
Latitude
Longitude
161.41°
Altitude
540.767 km
Speed
7.593 km/s
True Right ascension
00h 31m 56s
True Declination
0° 00' 00"
Sunlit
Object was in daylight at epoch
Visualization orbit readout
Latitude
Unknown
Longitude
Unknown
Altitude
Unknown
Speed
Unknown
Apparent Right ascension
Unknown
Apparent Declination
Unknown
Sunlit
N/A
Visualization observer readout
Local Sidereal Time
19:35:42
Azimuth
Unknown
Elevation
Unknown
Doppler factor
Unknown
Orbital elements
Apogee altitude
540.927 km
Perigee altitude
539.148 km
Semi-major axis
6,918.175 km
Eccentricity
0.00013
Inclination
53.2184°
RAAN
7.9846°
Arg. of periapsis
95.0513°
True anomaly
265.04792°
Mean anomaly
265.0626°
Eccentric anomaly
265.05526°
Mean motion
3.77186 °/min
Orbital period
95.44 mins
BSTAR
0.00013189
Loading maneuver chart data...
Computing Atmospheric mass density...
Loading historical data...
Loading historical data...
Loading historical data...
Loading historical data...
Loading historical data...
Loading historical data...
Loading historical data...

Documentation

Showing up to 5 results
|